| time (UTC) | temp C | wind direction | speed KPH | gust KPH | rain 1hr cm | rain 24hr cm | rain mn cm | humidity % | barometer mb |
| 20260509222003 | 16 | 18 | 0.0 | 3.2 | 0.00 | 0.20 | 0.00 | 63 | 1021.7 |
| 20260509220004 | 16 | 71 | 0.0 | 1.6 | 0.00 | 0.20 | 0.00 | 66 | 1021.5 |
| 20260509214003 | 15 | 124 | 0.0 | 1.6 | 0.00 | 0.33 | 0.00 | 69 | 1021.3 |
| 20260509212003 | 13 | 0 | 0.0 | 0.0 | 0.00 | 0.61 | 0.00 | 74 | 1021.3 |
| 20260509210003 | 12 | 152 | 0.0 | 3.2 | 0.00 | 0.66 | 0.00 | 79 | 1021.3 |
| 20260509204003 | 10 | 0 | 0.0 | 0.0 | 0.00 | 0.66 | 0.00 | 86 | 1021.1 |
| 20260509202003 | 8 | 172 | 0.0 | 1.6 | 0.00 | 0.66 | 0.00 | 89 | 1021.2 |
| 20260509200002 | 8 | 164 | 0.0 | 3.2 | 0.00 | 0.66 | 0.00 | 90 | 1021.1 |
| 20260509194003 | 7 | 201 | 0.0 | 1.6 | 0.00 | 0.66 | 0.00 | 91 | 1020.7 |
| 20260509192003 | 7 | 0 | 0.0 | 0.0 | 0.00 | 0.66 | 0.00 | 92 | 1020.4 |
| 20260509190003 | 7 | 0 | 0.0 | 0.0 | 0.00 | 0.66 | 0.00 | 92 | 1020.3 |
| 20260509184003 | 7 | 0 | 0.0 | 0.0 | 0.00 | 0.66 | 0.00 | 91 | 1020.0 |
| 20260509182003 | 7 | 0 | 0.0 | 0.0 | 0.00 | 0.66 | 0.00 | 92 | 1019.9 |
| 20260509180002 | 7 | 215 | 0.0 | 1.6 | 0.00 | 0.66 | 0.00 | 92 | 1019.9 |
| 20260509174002 | 7 | 198 | 0.0 | 1.6 | 0.00 | 0.66 | 0.00 | 92 | 1019.5 |
| 20260509172002 | 7 | 0 | 0.0 | 0.0 | 0.00 | 0.66 | 0.00 | 91 | 1019.2 |
| 20260509170004 | 8 | 0 | 0.0 | 0.0 | 0.00 | 0.66 | 0.00 | 91 | 1019.4 |
| 20260509164003 | 8 | 0 | 0.0 | 0.0 | 0.00 | 0.66 | 0.00 | 91 | 1019.4 |
| 20260509162003 | 8 | 183 | 0.0 | 1.6 | 0.00 | 0.66 | 0.00 | 91 | 1019.5 |
| 20260509160004 | 8 | 160 | 0.0 | 1.6 | 0.00 | 0.66 | 0.00 | 89 | 1019.6 |
| 20260509154004 | 8 | 167 | 0.0 | 1.6 | 0.00 | 0.66 | 0.00 | 89 | 1019.8 |
| 20260509152004 | 8 | 167 | 0.0 | 3.2 | 0.00 | 0.66 | 0.00 | 89 | 1019.7 |
| 20260509150004 | 8 | 157 | 0.0 | 4.8 | 0.00 | 0.66 | 0.00 | 89 | 1019.9 |
| 20260509144003 | 8 | 0 | 0.0 | 0.0 | 0.00 | 0.66 | 0.66 | 89 | 1020.0 |
| 20260509142003 | 8 | 150 | 0.0 | 3.2 | 0.00 | 0.66 | 0.66 | 89 | 1019.9 |
| 20260509140003 | 8 | 0 | 0.0 | 0.0 | 0.00 | 0.66 | 0.66 | 88 | 1019.6 |
| 20260509134003 | 9 | 0 | 0.0 | 0.0 | 0.00 | 0.66 | 0.66 | 87 | 1019.5 |
| 20260509132003 | 9 | 0 | 0.0 | 0.0 | 0.00 | 0.66 | 0.66 | 86 | 1019.5 |
| 20260509130003 | 10 | 165 | 0.0 | 1.6 | 0.00 | 0.66 | 0.66 | 85 | 1019.2 |
| 20260509124003 | 10 | 0 | 0.0 | 0.0 | 0.00 | 0.66 | 0.66 | 83 | 1019.2 |
| 20260509122003 | 11 | 0 | 0.0 | 0.0 | 0.00 | 0.81 | 0.66 | 81 | 1019.0 |
| 20260509120003 | 11 | 0 | 0.0 | 0.0 | 0.00 | 0.89 | 0.66 | 79 | 1018.9 |
| 20260509114003 | 12 | 0 | 0.0 | 0.0 | 0.00 | 0.91 | 0.66 | 77 | 1018.7 |
| 20260509112003 | 13 | 0 | 0.0 | 0.0 | 0.00 | 0.94 | 0.66 | 73 | 1018.5 |
| 20260509110003 | 13 | 113 | 0.0 | 3.2 | 0.00 | 0.97 | 0.66 | 68 | 1018.2 |
| 20260509104003 | 14 | 356 | 0.0 | 4.8 | 0.00 | 0.97 | 0.66 | 68 | 1018.0 |
| 20260509102003 | 14 | 56 | 0.0 | 3.2 | 0.00 | 1.04 | 0.66 | 68 | 1017.8 |
| 20260509100004 | 15 | 117 | 0.0 | 1.6 | 0.00 | 1.17 | 0.66 | 69 | 1017.5 |
| 20260509094003 | 15 | 99 | 0.0 | 1.6 | 0.00 | 1.63 | 0.66 | 68 | 1017.2 |
| 20260509092003 | 15 | 357 | 1.6 | 6.4 | 0.00 | 1.83 | 0.66 | 67 | 1016.6 |
| 20260509090003 | 15 | 31 | 1.6 | 4.8 | 0.00 | 1.88 | 0.66 | 67 | 1016.3 |
| 20260509084003 | 15 | 137 | 1.6 | 9.7 | 0.00 | 2.06 | 0.66 | 65 | 1016.0 |
| 20260509082003 | 15 | 117 | 1.6 | 6.4 | 0.00 | 2.44 | 0.66 | 64 | 1015.7 |
| 20260509080003 | 16 | 85 | 1.6 | 4.8 | 0.00 | 2.90 | 0.66 | 63 | 1015.5 |
| 20260509074003 | 16 | 327 | 3.2 | 16.1 | 0.00 | 3.10 | 0.66 | 62 | 1015.3 |
| 20260509072003 | 16 | 59 | 1.6 | 8.0 | 0.00 | 3.12 | 0.66 | 62 | 1015.1 |
| 20260509070003 | 16 | 333 | 1.6 | 8.0 | 0.00 | 3.23 | 0.66 | 62 | 1015.0 |
| 20260509064003 | 16 | 330 | 4.8 | 12.9 | 0.00 | 3.35 | 0.66 | 63 | 1014.9 |
| 20260509062003 | 16 | 334 | 3.2 | 16.1 | 0.00 | 3.38 | 0.66 | 61 | 1014.6 |
| 20260509060003 | 16 | 323 | 6.4 | 14.5 | 0.00 | 3.43 | 0.66 | 62 | 1014.7 |
| 20260509054003 | 16 | 297 | 4.8 | 14.5 | 0.00 | 3.58 | 0.66 | 63 | 1014.8 |
| 20260509052003 | 16 | 327 | 8.0 | 20.9 | 0.00 | 3.68 | 0.66 | 62 | 1014.8 |
| 20260509050003 | 17 | 347 | 4.8 | 22.5 | 0.00 | 3.68 | 0.66 | 63 | 1014.7 |
| 20260509044003 | 16 | 326 | 6.4 | 22.5 | 0.00 | 3.68 | 0.66 | 66 | 1015.0 |
| 20260509042003 | 16 | 328 | 6.4 | 22.5 | 0.00 | 3.68 | 0.66 | 66 | 1015.2 |
| 20260509040003 | 16 | 11 | 1.6 | 11.3 | 0.00 | 3.68 | 0.66 | 67 | 1015.3 |
| 20260509034004 | 16 | 335 | 4.8 | 14.5 | 0.00 | 3.68 | 0.66 | 69 | 1015.3 |
| 20260509032003 | 15 | 334 | 3.2 | 12.9 | 0.00 | 3.68 | 0.66 | 71 | 1015.1 |
| 20260509030003 | 14 | 348 | 3.2 | 9.7 | 0.03 | 3.68 | 0.66 | 76 | 1015.2 |
| 20260509024003 | 13 | 344 | 1.6 | 8.0 | 0.13 | 3.68 | 0.66 | 81 | 1015.4 |
| 20260509022003 | 13 | 105 | 1.6 | 6.4 | 0.13 | 3.68 | 0.66 | 83 | 1015.3 |
| 20260509020004 | 13 | 320 | 4.8 | 14.5 | 0.18 | 3.66 | 0.64 | 80 | 1015.5 |
| 20260509014003 | 13 | 325 | 1.6 | 14.5 | 0.08 | 3.56 | 0.53 | 78 | 1015.2 |
| 20260509012003 | 12 | 330 | 1.6 | 4.8 | 0.08 | 3.56 | 0.53 | 84 | 1015.5 |
| 20260509010004 | 12 | 325 | 3.2 | 11.3 | 0.00 | 3.48 | 0.46 | 77 | 1015.4 |
| 20260509004003 | 12 | 328 | 1.6 | 4.8 | 0.00 | 3.48 | 0.46 | 80 | 1015.4 |
| 20260509002004 | 12 | 327 | 3.2 | 11.3 | 0.00 | 3.48 | 0.46 | 80 | 1015.3 |
| 20260509000004 | 12 | 309 | 1.6 | 9.7 | 0.00 | 3.48 | 0.46 | 81 | 1015.1 |
| 20260508234003 | 11 | 325 | 3.2 | 8.0 | 0.00 | 3.48 | 0.46 | 82 | 1015.1 |
| 20260508232003 | 11 | 52 | 1.6 | 8.0 | 0.00 | 3.48 | 0.46 | 82 | 1015.1 |
| 20260508230004 | 11 | 135 | 0.0 | 1.6 | 0.00 | 3.48 | 0.46 | 85 | 1014.9 |
| 20260508224003 | 11 | 334 | 1.6 | 9.7 | 0.13 | 3.48 | 0.46 | 86 | 1014.5 |